Location: Lafig�re
(44.4503°N, 4.0357°E)
Time: 15:07:46
(UTC+00:00)

ARGOS - Pass Details

Date: 02 February 2021
Orbit: 821 x 834 km, 98.4° (Epoch: 05 March)

Event Time Altitude Azimuth Distance (km) Brightness Sun altitude
Rises 20:09:39 0° 211° (SSW) 3,346 6.5 -34.9°
Reaches altitude 10° 20:12:52 10° 231° (SW) 2,421 6.0 -35.5°
Maximum altitude 20:16:14 17° 270° (W) 1,996 5.8 -36.1°
Drops below altitude 10° 20:19:37 10° 310° (NW) 2,438 6.2 -36.6°
Sets 20:22:54 0° 330° (NNW) 3,380 6.8 -37.2°
